Weather Roundup
Issued by NWS Corpus Christi, TX

Home | Current Version | Previous Version | Text Only | Print | Product List | Glossary On
Versions: 1 2 3 4 5 6 7 8 9 10 11 12 13 14 15 16 17 18 19 20 21 22 23 24 25 26 27 28 29 30 31 32 33 34 35 36 37 38 39 40 41 42 43 44 45 46 47 48 49 50
000
ASUS44 KCRP 230210
HRRCRP

SOUTH TEXAS REGIONAL WEATHER ROUNDUP
NATIONAL WEATHER SERVICE CORPUS CHRISTI TX
900 PM CDT MON MAY 22 2017


TXZ229>244-230300-
...CORPUS CHRISTI AREA OBSERVATIONS...

CITY           SKY/WX    TMP DP  RH WIND       PRES   REMARKS
CORPUS CHRISTI PTCLDY    77  73  87 SE5       29.81S
NAS CORPUS CHR PTCLDY    78  74  87 E5        29.81R
ROCKPORT       PTCLDY    79  72  79 CALM      29.81R
ALICE          CLEAR     78  69  73 E5        29.81R
ORANGE GROVE   CLEAR     80  72  76 E5        29.83R
FALFURRIAS     CLEAR     80  72  76 CALM      29.82R
$$

...VICTORIA AREA OBSERVATIONS...

CITY           SKY/WX    TMP DP  RH WIND       PRES   REMARKS
VICTORIA       CLOUDY    76  71  85 NE9       29.84S
BEEVILLE       FAIR      80  73  79 NE6       29.83S
PLEASANTON     CLEAR     74  68  81 NE6       29.87S
SAN ANTONIO    CLOUDY    72  65  78 NE5       29.89F
$$

...LAREDO AREA OBSERVATIONS...

CITY           SKY/WX    TMP DP  RH WIND       PRES   REMARKS
LAREDO         CLOUDY    82  72  71 NE6       29.85R
COTULLA        PTCLDY    79  69  71 NE7       29.85R
DEL RIO        PTCLDY    73  70  90 SW3       29.88R
MCALLEN        CLOUDY    86  74  67 NE13      29.80R HX  94
HEBBRONVILLE   CLOUDY    81  69  67 CALM      29.85R
$$

...OTHER TEXAS OBSERVATIONS...

CITY           SKY/WX    TMP DP  RH WIND       PRES   REMARKS
BROWNSVILLE    MOCLDY    84  76  76 E7        29.81R HX  93
HOUSTON        CLOUDY    70  65  84 N9        29.87R
COL. STATION   CLOUDY    71  65  81 NE8       29.89S
AUSTIN         PTCLDY    72  65  78 NE6       29.90R
WACO           PTCLDY    69  64  84 E6        29.91R
FORT WORTH     CLOUDY    72  62  71 SE13      29.90R
WICHITA FALLS  CLOUDY    71  60  68 E5        29.91R
LUBBOCK        CLOUDY    70  59  68 SE8       29.98R
EL PASO        PTCLDY    87  22   9 N14       29.89R
$$

...MARINE OBSERVATIONS...

STATION/POSITION TIME  SKY/WX   TEMP    WIND        PRES    VSBY  WAVE   SWELL
                                AIR SEA DIR/SP/G                  HT/PER HT/PER
                 (UTC)          (F)     (DEG/KT/KT) (MB)    (MI)  (FT/S) (FT/S)
PORT ARANSAS     0200            80 80  100/  3/  3 1009.8R
BUOY 90 E PORT A 0150            78 79  220/  4/  4 1010.2R         5/ 7   5/ 7
BUOY 45 SE BAFFI 0150            79     150/  6/  6 1008.4S         5/ 8   5/ 8
BUOY 200 E PT IS 0150            80 80  170/ 16/ 19 1010.3R         6/ 7   3/13
BUOY 15 E GALVES 0050            76 79  360/ 10/ 12 1009.6          3/ 6   2/ 6
$$



USA.gov is the U.S. government's official web portal to all federal, state and local government web resources and services.